Weather Roundup
Issued by NWS

Home | Current Version | Previous Version | Graphics & Text | Print | Product List | Glossary Off
Versions: 1 2 3 4 5 6 7 8 9 10 11 12 13 14 15 16 17 18 19 20 21 22 23 24 25 26 27 28 29 30 31 32 33 34 35 36 37 38 39 40 41 42 43 44 45 46 47 48 49 50

113
NZUS93 KARX 120810
HRRWXR

CURRENT HOURLY OBSERVATIONS ACROSS
MUCH OF THE UPPER MISSISSIPPI VALLEY
NATIONAL WEATHER SERVICE LA CROSSE WI
200 AM CST FRI FEB 12 2016


...SOUTHEAST MINNESOTA...


CITY           SKY/WX    TMP DP  RH WIND       PRES   REMARKS
ROCHESTER      LGT SNOW  12   8  84 W9        30.15F FOG     WCI   0
ROCHESTER/MAYO CLOUDY    15  10  83 W6        30.17S WCI   6
WINONA         LGT SNOW  16  10  79 NW3       30.21S
AUSTIN         LGT SNOW  12  10  92 W8        30.18R WCI   1
ALBERT LEA     LGT SNOW  14  10  85 W5        30.18S WCI   6
DODGE CENTER   LGT SNOW  12   9  85 W9        30.16S WCI   0
PRESTON        FLURRIES  11   7  81 W9        30.16F WCI  -1
OWATONNA       FLURRIES  12   9  85 W7        30.18F WCI   2
FARIBAULT        N/A     12  10  92 W6        30.19S WCI   3
$$

...ELSEWHERE IN MINNESOTA...


CITY           SKY/WX    TMP DP  RH WIND       PRES   REMARKS
MINNEAPOLIS    CLOUDY    14   8  77 W9        30.20S WCI   2
INTNL FALLS    PTCLDY    -2  -9  72 NW12      30.16R WCI -20
DULUTH         PTCLDY     6  -2  69 NW12G25   30.09R WCI  -9
RED WING       CLOUDY    12   9  85 NW2       30.19S
REDWOOD FALLS  CLOUDY    15  11  83 NW10      30.24R WCI   2
MANKATO        CLOUDY    16  10  79 W9        30.21R WCI   4
WORTHINGTON    CLOUDY    16  10  79 N20       30.22S WCI  -1
FAIRMONT       CLOUDY    16  10  79 NW9       30.20S WCI   4
$$

...SOUTHWEST WISCONSIN...


CITY           SKY/WX    TMP DP  RH WIND       PRES   REMARKS
LA CROSSE      LGT SNOW  14   7  73 W6        30.20S WCI   5
PRAIRIE DU CHI MIX PCPN  15   4  63 W3        30.22S
BOSCOBEL       CLOUDY    15   5  64 SW6       30.21F WCI   6
LONE ROCK      CLOUDY    15   3  59 W6        30.19F WCI   6
PLATTEVILLE    CLOUDY    14   6  71 W5        30.17F WCI   6
FORT MC COY    FLURRIES  13   6  74 W3        30.18F
CAMP DOUGLAS   CLOUDY    13   4  65 W10       30.14F WCI   0
VIROQUA        CLOUDY    11   7  85 W9        30.13F WCI  -2
WIS DELLS      CLOUDY    14   1  56 W8        30.14F WCI   2
$$

...ELSEWHERE IN WISCONSIN...


CITY           SKY/WX    TMP DP  RH WIND       PRES   REMARKS
MILWAUKEE      CLOUDY    18   2  49 W13       30.15F WCI   5
MADISON        CLOUDY    15   0  51 VRB3      30.15F
GREEN BAY      CLOUDY    15   1  53 W12       30.10F WCI   2
EAU CLAIRE     CLOUDY    14   6  70 W8        30.15F WCI   3
BLACK RVR FLS  CLOUDY    14   4  64 W7        30.16F WCI   4
MEDFORD        CLOUDY    11   2  69 W10G17    30.06F WCI  -3
WAUSAU         CLOUDY    13   2  61 W13       30.06F WCI  -2
WIS RAPIDS     CLOUDY    13   0  56 W8        30.13F WCI   2
MARSHFIELD     CLOUDY    13   2  61 W8        30.08F WCI   2
RICE LAKE      CLOUDY    13   8  79 W7        30.14F WCI   3
$$

...NORTHEAST IOWA...


CITY           SKY/WX    TMP DP  RH WIND       PRES   REMARKS
WATERLOO       CLOUDY    13   7  77 CALM      30.20F
DUBUQUE        CLOUDY    15   6  67 W7        30.17F WCI   5
DECORAH        FLURRIES  14   7  73 CALM      30.16F
MASON CITY     CLOUDY    13   9  84 W13       30.21S WCI  -2
CHARLES CITY   CLOUDY    14   9  79 W9        30.19F WCI   2
OELWEIN        CLOUDY    12   7  79 NW5       30.19S WCI   4
$$

...ELSEWHERE IN IOWA...


CITY           SKY/WX    TMP DP  RH WIND       PRES   REMARKS
DES MOINES     FLURRIES  19  15  84 W3        30.22S
IOWA CITY      CLOUDY    18  16  92 CALM      30.24F
FORT DODGE     CLOUDY    16  10  79 W6        30.23F WCI   7
MARSHALLTOWN   CLOUDY    17  14  88 W5        30.20F WCI  10
CEDAR RAPIDS   CLOUDY    18  16  92 W5        30.20F WCI  11
$$

...NORTHERN ILLINOIS...


CITY           SKY/WX    TMP DP  RH WIND       PRES   REMARKS
CHICAGO-OHARE  CLOUDY    19   7  59 SW9       30.18F WCI   8
CHICAGO-MIDWAY CLOUDY    20   7  57 W6        30.20F WCI  12
MOLINE         CLOUDY    21  13  71 W6        30.22F WCI  13
ROCKFORD       CLOUDY    17   6  62 SW3       30.20F
PEORIA         FLURRIES  23  13  65 W3        30.23F
$$

NOTE: "FAIR" INDICATES FEW OR NO CLOUDS BELOW 12,000 FEET WITH NO
SIGNIFICANT WEATHER AND/OR OBSTRUCTIONS TO VISIBILITY. WIND
SPEEDS ARE IN MILES-PER-HOUR.




USA.gov is the U.S. government's official web portal to all federal, state and local government web resources and services.